Theta_e
298 300 300 298 298 298 296 297 294 296 297 301 305 312 316 314 318 319 320 321 322 321 320 320 321 322 324 323 324 326 328 328 327 327 326 325 322 320 319 317 317 315 313 313
295 301 302 299 299 300 300 301 300 301 300 307 312 320 319 316 317 317 319 320 321 321 321 321 320 321 322 322 324 329 329 327 324 324 323 321 319 318 318 318 316 312 310 310
289 298 299 293 298 302 302 303 301 298 302 315 317 319 319 318 320 322 323 323 323 323 324 324 325 326 326 326 328 327 325 322 320 322 321 321 320 320 316 315 313 310 309 309
290 295 285 296 306 307 304 305 306 306 307 316 318 320 322 325 324 323 322 321 322 324 321 319 319 319 321 323 322 319 318 318 318 321 322 321 321 319 315 312 311 310 309 310
289 290 294 301 304 304 301 301 308 307 311 315 318 320 319 324 326 324 323 324 323 323 321 319 317 317 318 317 316 315 315 316 317 318 316 315 314 314 312 310 310 309 309 311
292 287 286 296 308 311 308 296 307 310 310 311 312 308 310 321 322 322 323 322 322 322 320 317 316 316 315 313 312 312 313 313 315 314 314 313 312 307 307 309 309 310 310 310
289 289 294 303 308 311 295 297 310 313 314 312 310 311 318 322 321 322 323 323 324 322 319 317 319 318 314 313 311 312 312 312 312 313 311 310 308 309 310 309 310 309 308 307
293 293 292 308 309 302 304 312 313 315 315 316 316 319 319 320 321 322 322 323 324 321 319 319 318 317 314 313 313 313 311 310 310 310 308 310 309 309 309 308 307 307 304 304
297 297 307 312 310 313 315 314 315 315 317 319 319 319 320 320 321 323 323 321 320 321 320 317 317 316 312 310 310 310 309 308 309 310 310 310 309 309 307 307 305 304 303 303
302 305 305 308 310 313 315 316 317 318 317 319 317 320 319 319 319 321 322 322 322 320 316 315 315 314 311 310 311 309 309 308 308 308 308 308 308 307 306 305 304 303 302 301
301 304 308 308 310 312 310 314 313 315 316 316 317 318 319 317 316 317 315 316 318 316 315 313 312 310 310 311 310 307 306 307 307 307 306 306 305 304 305 304 302 303 301 301
296 305 306 308 311 313 309 307 309 308 308 309 315 316 317 314 314 314 311 312 311 308 308 306 307 309 309 310 309 307 306 306 305 305 304 304 303 304 296 296 294 295 294 298
303 309 310 312 313 313 308 307 308 307 307 306 306 308 308 305 305 307 307 307 306 305 305 308 309 309 310 309 309 307 307 306 305 304 303 302 302 301 300 299 296 295 295 295
310 311 308 310 309 307 307 306 307 307 307 306 306 306 306 305 306 306 305 306 307 308 310 310 310 308 309 309 308 307 307 301 304 302 302 301 300 300 300 299 299 300 298 295
310 310 305 306 306 306 306 306 304 304 304 304 306 305 306 305 306 307 308 310 310 310 310 310 309 308 311 310 308 307 307 305 303 303 302 299 300 299 299 299 299 299 299 298
304 303 304 303 303 304 304 304 302 302 303 304 304 305 306 307 308 308 309 310 308 307 309 309 309 309 310 310 309 307 306 300 299 303 300 300 299 299 298 298 298 298 299 300
301 300 301 301 301 301 301 302 302 302 302 302 302 303 304 304 303 304 306 307 307 306 305 305 304 306 307 307 306 306 304 305 299 302 300 300 299 299 298 298 298 299 300 298
303 303 303 302 301 301 301 301 301 301 300 302 302 301 301 300 299 299 300 304 303 302 303 304 304 305 306 305 303 303 306 305 303 302 300 300 299 299 298 298 299 300 301 301
304 303 303 303 302 301 300 300 300 301 301 302 301 299 299 299 299 299 300 299 298 299 301 304 302 305 305 304 301 305 307 304 303 302 301 298 301 301 301 300 300 301 301 302
303 303 303 303 303 302 300 301 301 300 300 300 299 298 297 298 299 299 299 298 299 300 302 303 305 304 303 304 299 307 305 306 305 304 303 303 301 301 301 296 300 299 299 298
302 302 301 301 301 302 301 301 299 298 299 298 297 296 296 297 298 298 297 298 301 302 303 302 302 301 303 299 301 302 302 299 298 298 299 298 297 297 298 297 297 297 296 296
301 301 301 301 299 299 299 299 298 298 298 298 298 297 297 296 298 299 299 299 300 291 300 300 297 289 296 293 298 298 297 296 296 296 296 295 295 295 295 296 295 296 295 295
300 300 300 300 299 298 299 299 299 299 298 298 298 297 297 297 297 298 299 300 301 295 298 296 288 287 288 297 296 296 295 295 294 294 294 294 294 294 294 293 294 294 294 294
299 299 298 299 299 299 298 298 299 299 299 299 299 299 299 299 300 302 303 297 290 293 295 293 290 287 289 295 294 294 294 294 294 294 294 290 293 293 293 293 292 293 293 291
299 299 298 298 297 298 298 298 298 298 298 299 300 301 301 301 302 301 302 301 291 294 295 287 287 287 295 295 295 294 293 293 293 293 293 292 291 291 291 291 291 291 291 291
298 298 299 299 299 301 299 299 298 298 299 299 300 301 302 301 299 298 296 295 297 293 296 296 296 296 296 295 295 295 295 294 294 293 292 292 291 291 290 290 290 290 290 290
298 295 297 298 299 302 302 298 298 299 298 300 300 302 301 301 299 297 293 297 297 297 297 297 296 295 296 295 295 294 293 293 290 293 292 291 291 290 290 290 290 290 290 290
Wind_Speed
6 8 4 6 7 8 5 7 5 6 5 6 6 5 3 3 3 7 9 8 7 7 7 7 7 7 8 6 7 6 6 6 4 4 5 6 6 5 5 5 5 3 3 3
4 4 4 5 8 8 5 2 4 1 3 5 2 4 5 5 5 6 8 9 7 8 6 6 6 7 5 5 6 7 6 6 5 6 6 5 5 5 4 2 4 3 1 2
5 6 8 6 4 5 3 1 1 6 9 5 4 5 4 7 7 9 8 7 9 10 10 8 7 5 6 6 5 5 6 6 6 5 5 6 6 4 3 3 1 2 3 3
3 5 4 6 2 4 6 4 3 5 6 10 8 6 3 4 10 12 14 14 4 5 8 12 7 5 4 3 6 7 6 6 5 5 4 3 3 2 0 1 1 3 3 4
3 3 8 4 6 5 2 6 2 2 2 3 4 5 2 1 3 1 6 8 7 7 3 8 10 8 4 2 6 7 5 5 4 4 4 3 3 3 3 4 3 3 3 4
2 2 4 3 5 8 6 6 2 3 5 1 1 4 3 5 7 8 9 7 7 11 12 12 10 10 3 2 5 5 5 4 4 5 4 5 4 4 3 2 3 2 3 2
2 1 8 4 11 8 1 6 4 3 2 3 2 4 3 11 9 7 7 10 10 12 9 8 3 3 5 3 3 3 4 3 1 1 2 3 4 3 2 2 2 2 4 3
2 2 6 10 11 2 5 6 3 6 3 9 5 6 8 9 11 12 12 13 10 7 8 7 4 3 8 6 3 3 3 3 1 1 2 2 2 2 2 2 3 4 5 6
8 7 1 5 7 14 4 6 3 7 5 7 3 4 8 13 14 14 15 13 11 10 9 9 10 10 8 4 5 4 4 2 1 2 2 3 3 1 2 2 3 4 3 4
2 4 6 9 11 10 8 7 8 7 11 7 10 10 8 4 5 8 8 7 6 8 10 9 7 6 6 6 4 4 4 3 2 4 3 3 2 1 2 2 2 2 4 4
3 2 2 8 11 12 5 6 8 9 6 7 2 5 3 4 4 3 2 3 7 9 9 7 7 7 4 4 5 5 5 3 3 2 3 3 3 3 1 2 1 1 1 2
4 3 5 6 12 16 8 3 2 3 4 5 3 3 2 4 2 2 3 4 5 7 4 5 6 6 6 5 4 5 3 2 1 2 2 2 1 1 5 6 6 4 2 1
6 4 3 3 11 8 5 10 9 9 8 6 8 7 6 4 5 8 7 8 7 6 7 7 8 8 7 6 4 6 2 1 1 1 2 2 2 1 2 3 3 3 3 1
9 7 3 8 2 7 9 9 10 14 13 11 10 11 11 12 12 12 11 8 9 11 11 11 10 11 6 7 7 8 6 5 1 2 2 2 1 2 2 3 2 2 4 5
8 4 3 6 9 10 8 7 15 14 11 13 12 12 12 13 12 9 8 9 10 10 10 8 7 4 3 7 3 5 6 2 3 2 2 2 2 3 3 3 2 2 3 4
8 10 9 10 9 8 7 10 13 10 10 9 10 10 9 10 9 9 9 7 8 7 6 7 6 4 6 5 5 4 4 2 4 3 2 3 3 4 3 2 2 2 2 3
13 7 5 8 8 7 9 7 8 6 6 8 7 7 8 8 8 7 7 8 9 7 6 5 5 6 6 5 4 3 3 0 5 3 2 3 3 3 2 1 1 0 1 1
9 8 7 8 7 8 7 7 6 6 6 5 6 7 7 7 5 5 5 4 5 6 6 5 4 3 4 6 5 4 3 2 2 2 2 1 2 1 1 1 3 4 2 2
10 11 9 9 7 6 6 5 5 5 5 5 6 6 5 5 5 4 5 7 6 4 5 5 7 4 4 5 4 2 1 3 1 1 1 0 1 2 4 3 4 4 4 4
10 8 8 7 6 5 5 4 5 5 4 4 5 5 6 5 4 5 3 4 2 2 5 4 5 5 6 6 7 3 3 2 4 1 1 2 1 2 1 2 3 4 5 5
9 7 7 6 5 5 5 4 4 5 4 5 6 5 4 4 4 3 5 4 5 5 5 6 5 4 4 4 6 6 6 6 7 6 6 5 4 5 5 6 6 6 6 6
5 6 6 6 6 5 4 4 4 4 5 5 5 4 4 5 5 4 3 2 3 7 4 4 4 6 6 9 7 7 7 8 7 6 7 7 6 6 6 6 6 6 6 6
6 5 5 6 6 6 4 4 4 5 5 5 5 4 4 3 2 2 3 5 3 5 4 4 4 7 8 7 6 7 8 8 7 7 7 7 7 7 7 7 7 7 6 7
5 5 4 5 5 5 5 2 4 4 5 4 4 3 4 3 2 2 2 4 7 7 5 4 6 8 8 6 7 8 8 7 7 7 7 7 7 7 7 6 6 6 6 7
5 4 4 5 4 3 5 4 4 4 4 4 4 3 4 2 3 2 2 3 9 7 5 5 7 6 6 7 7 8 7 7 6 7 7 7 7 7 6 6 6 6 6 6
4 3 3 5 3 3 3 3 3 2 2 2 2 2 2 2 3 3 3 5 5 5 5 4 4 5 6 6 6 6 6 6 6 6 6 6 6 6 6 6 6 6 6 6
3 4 3 2 1 3 4 3 4 3 3 3 3 1 1 2 3 4 5 4 4 4 4 4 4 4 4 4 4 4 4 4 5 5 5 5 5 5 5 5 5 5 5 5
Wind_Direction
250 252 244 249 258 281 213 225 175 264 224 278 265 168 157 106 84 97 97 86 102 108 102 123 137 123 127 119 126 116 116 116 131 124 107 125 124 132 153 151 122 119 172 182
276 290 298 275 282 269 244 143 137 275 289 221 269 99 109 98 91 84 88 106 101 96 99 84 58 71 99 94 79 108 110 96 114 112 102 118 135 158 148 140 146 185 173 258
293 338 329 313 249 287 295 336 208 183 224 161 149 149 146 135 135 107 69 48 88 91 80 68 57 50 78 91 104 91 104 117 117 137 152 149 172 162 159 216 71 359 288 313
259 347 265 262 195 223 224 266 311 285 213 190 168 107 125 140 152 136 126 120 63 98 129 131 103 59 87 127 131 122 113 116 122 130 136 121 146 208 233 351 261 278 303 288
138 182 282 285 346 324 157 275 230 246 47 29 83 74 73 278 339 129 102 107 119 113 125 78 80 95 88 84 93 97 115 122 119 123 134 180 229 262 248 245 264 265 263 272
79 139 260 304 334 334 286 289 326 130 46 82 353 126 292 85 78 34 82 90 80 60 55 46 41 57 328 155 113 134 140 160 178 175 182 216 235 270 268 273 288 294 279 306
94 302 287 322 322 322 276 251 349 18 89 110 339 260 145 108 89 84 75 72 64 67 54 87 68 86 234 178 194 171 167 149 151 243 248 245 242 229 264 262 269 288 321 328
135 218 262 9 342 308 276 304 33 28 8 83 105 113 88 102 129 141 119 112 119 131 133 217 148 190 234 219 218 163 135 125 142 347 317 316 291 357 2 354 332 339 331 313
178 215 27 27 316 295 285 289 28 32 2 98 187 10 180 153 168 162 158 157 182 164 181 188 202 208 217 216 164 165 147 156 100 98 96 116 117 58 340 333 334 322 320 317
353 5 11 15 344 333 352 0 23 292 293 238 182 170 212 160 167 157 174 177 150 161 179 190 220 219 225 178 156 115 94 92 88 97 86 67 43 341 324 340 326 338 348 352
256 11 320 28 333 334 344 272 285 284 302 280 220 195 196 174 166 157 138 146 153 169 173 190 186 180 131 70 103 104 111 88 62 26 15 11 19 1 11 86 251 59 40 354
192 190 111 322 313 305 286 189 347 30 349 359 342 248 134 76 105 139 67 58 71 59 94 113 66 31 57 64 90 114 104 116 16 346 1 356 10 194 65 93 80 112 123 351
162 186 80 149 288 307 340 18 15 44 26 31 21 58 67 64 51 70 61 62 70 62 56 32 44 35 43 50 38 64 33 146 244 6 356 359 48 35 22 10 50 40 3 4
139 128 165 211 255 37 44 38 40 50 44 42 51 57 68 72 64 63 59 70 74 76 71 66 48 47 30 39 37 22 319 312 355 78 86 59 53 81 76 60 70 3 319 358
175 212 43 72 61 54 55 59 63 54 50 51 50 60 64 70 68 71 80 80 88 93 99 100 100 77 11 43 5 262 264 204 133 112 89 116 100 82 86 96 74 37 351 357
100 94 83 79 71 52 65 57 70 56 50 48 57 53 57 65 67 56 37 46 81 66 41 38 358 358 314 286 265 267 280 196 133 124 135 113 99 98 101 73 56 30 360 3
107 89 88 79 77 68 59 60 64 59 57 56 51 47 58 62 58 50 45 48 61 56 40 26 332 343 341 343 339 309 303 236 155 123 147 128 123 139 153 166 175 225 311 298
112 113 102 114 112 92 68 60 57 52 51 54 53 54 54 54 61 46 45 73 68 55 28 2 342 3 18 31 356 14 359 198 161 150 143 168 136 92 310 302 304 303 315 324
102 106 94 90 93 96 84 76 64 63 57 61 62 57 57 48 47 53 58 59 49 37 342 347 348 4 12 339 337 344 219 156 144 107 323 193 201 231 261 291 313 310 309 319
92 84 94 92 79 89 102 87 78 65 48 74 83 67 58 42 59 80 76 78 53 326 316 315 321 340 356 345 343 21 46 67 93 57 203 285 308 283 352 350 22 44 58 52
102 101 104 104 94 75 86 89 82 65 54 67 79 78 79 55 63 98 61 55 349 343 325 349 3 11 23 33 42 46 43 39 39 25 26 26 42 72 75 69 69 59 57 58
121 126 125 119 107 97 96 94 90 89 76 70 72 76 80 60 53 47 49 48 322 6 23 35 39 25 54 53 54 52 51 50 46 43 43 42 33 42 55 56 56 61 59 56
125 128 118 112 116 120 101 83 87 95 86 77 73 61 64 64 38 83 45 5 34 37 61 61 30 51 53 56 55 56 57 56 53 53 55 55 55 52 50 43 42 43 40 47
116 119 115 122 120 114 101 71 93 94 100 91 76 56 73 85 67 31 58 80 65 76 70 58 65 60 59 62 62 61 60 59 58 58 59 54 53 50 49 48 49 43 45 42
129 122 124 127 140 155 140 138 108 96 92 73 43 38 56 24 76 10 53 78 96 88 88 48 63 60 74 74 72 70 66 65 63 64 58 55 49 46 43 42 40 37 36 35
145 155 169 186 189 173 167 157 148 163 135 94 55 58 33 28 56 63 75 98 104 104 93 80 79 81 83 82 81 79 77 73 68 62 60 55 53 51 48 47 45 41 38 33
126 122 121 98 114 168 159 169 154 190 177 144 139 139 73 55 63 87 101 100 105 106 106 96 91 87 90 82 75 72 70 68 59 73 64 60 53 51 46 41 34 31 35 31